Location: City of Moscow
(46.7306°N, 116.9989°W)
Time: 04:01:39
(UTC+00:00)

SKYMED 2 - Pass Details

Date: 11 December 2025
Orbit: 622 x 623 km, 97.9° (Epoch: 13 January)

Event Time Altitude Azimuth Distance (km) Brightness Sun altitude
Rises 13:16:31 0° 178° (S) 2,892 7.2 -20.7°
Reaches altitude 10° 13:18:44 10° 183° (S) 1,990 6.3 -20.3°
Maximum altitude 13:22:58 52° 260° (W) 778 3.7 -19.6°
Enters shadow 13:23:50 44° 300° (WNW) 864 3.8 -19.5°
